�������l�o���
Date,Time,MP-1(��Sv/h),MP-2(��Sv/h),MP-3(��Sv/h),MP-4(��Sv/h),MP-5(��Sv/h),MP-6(��Sv/h),MP-7(��Sv/h),MP-8(��Sv/h),����,����(m/s),���J
2021/09/02,00:00,0.580,0.853,0.557,1.035,0.735,0.362,0.612,0.575,�k�k��,2.0,�L
2021/09/02,00:10,0.582,0.857,0.557,1.037,0.738,0.361,0.613,0.576,�k�k��,5.3,�L
2021/09/02,00:20,0.583,0.854,0.557,1.039,0.737,0.362,0.614,0.577,�k��,4.7,�L
2021/09/02,00:30,0.582,0.854,0.557,1.033,0.732,0.361,0.610,0.574,-,CALM,�L
2021/09/02,00:40,0.580,0.847,0.556,1.029,0.731,0.361,0.611,0.573,�k��,7.1,�L
2021/09/02,00:50,0.584,0.852,0.558,1.032,0.733,0.363,0.613,0.575,�k��,6.2,�L
2021/09/02,01:00,0.585,0.854,0.559,1.032,0.733,0.365,0.613,0.574,�k��,6.2,�L
2021/09/02,01:10,0.583,0.852,0.560,1.030,0.734,0.365,0.613,0.575,�k��,6.2,�L
2021/09/02,01:20,0.583,0.854,0.559,1.033,0.733,0.365,0.612,0.575,�k��,5.9,�L
2021/09/02,01:30,0.584,0.851,0.559,1.029,0.730,0.365,0.611,0.574,�k��,7.7,�L
2021/09/02,01:40,0.581,0.851,0.557,1.027,0.728,0.364,0.610,0.573,�k�k��,5.7,�L
2021/09/02,01:50,0.583,0.851,0.558,1.027,0.726,0.363,0.610,0.572,�k��,6.6,�L
2021/09/02,02:00,0.582,0.851,0.558,1.026,0.725,0.363,0.610,0.572,�k��,4.6,�L
2021/09/02,02:10,0.579,0.847,0.555,1.021,0.722,0.361,0.606,0.568,�k�k��,4.2,�L
2021/09/02,02:20,0.584,0.851,0.557,1.024,0.724,0.361,0.607,0.569,�k�k��,4.1,�L
2021/09/02,02:30,0.584,0.853,0.555,1.030,0.727,0.363,0.610,0.573,�k�k��,4.5,�L
2021/09/02,02:40,0.586,0.853,0.555,1.029,0.727,0.363,0.611,0.574,�k�k��,6.3,�L
2021/09/02,02:50,0.584,0.855,0.554,1.031,0.728,0.362,0.610,0.573,�k�k��,5.7,�L
2021/09/02,03:00,0.585,0.855,0.555,1.030,0.726,0.362,0.610,0.574,�k��,5.9,�L
2021/09/02,03:10,0.583,0.853,0.556,1.033,0.728,0.361,0.611,0.575,�k�k��,6.6,�L
2021/09/02,03:20,0.584,0.856,0.557,1.033,0.727,0.362,0.611,0.576,�k�k��,6.3,�L
2021/09/02,03:30,0.583,0.855,0.554,1.034,0.727,0.362,0.612,0.573,�k�k��,6.0,�L
2021/09/02,03:40,0.583,0.853,0.553,1.033,0.728,0.361,0.613,0.574,�k�k��,5.8,�L
2021/09/02,03:50,0.581,0.853,0.551,1.034,0.727,0.359,0.612,0.572,�k�k��,6.1,�L
2021/09/02,04:00,0.580,0.852,0.553,1.035,0.726,0.359,0.612,0.573,�k�k��,5.9,�L
2021/09/02,04:10,0.581,0.850,0.551,1.032,0.726,0.358,0.613,0.575,�k�k��,6.0,�L
2021/09/02,04:20,0.579,0.850,0.550,1.035,0.724,0.359,0.611,0.573,�k�k��,5.8,�L
2021/09/02,04:30,0.580,0.852,0.549,1.035,0.726,0.358,0.610,0.574,�k�k��,4.5,�L
2021/09/02,04:40,0.578,0.853,0.550,1.034,0.726,0.358,0.612,0.574,�k�k��,5.6,�L
2021/09/02,04:50,0.579,0.854,0.549,1.035,0.726,0.357,0.612,0.573,�k��,6.2,�L
2021/09/02,05:00,0.580,0.853,0.550,1.037,0.725,0.357,0.610,0.573,�k�k��,6.1,�L
2021/09/02,05:10,0.580,0.852,0.549,1.037,0.725,0.356,0.610,0.573,�k�k��,6.6,�L
2021/09/02,05:20,0.579,0.851,0.550,1.035,0.727,0.357,0.610,0.572,�k��,5.8,�L
2021/09/02,05:30,0.580,0.853,0.547,1.037,0.727,0.355,0.609,0.573,�k�k��,5.6,�L
2021/09/02,05:40,0.578,0.853,0.549,1.036,0.726,0.355,0.610,0.574,�k��,5.9,�L
2021/09/02,05:50,0.580,0.851,0.548,1.036,0.727,0.356,0.610,0.574,�k�k��,5.3,�L
2021/09/02,06:00,0.578,0.853,0.547,1.039,0.728,0.355,0.610,0.573,�k�k��,6.3,�L
2021/09/02,06:10,0.578,0.853,0.547,1.037,0.727,0.356,0.610,0.574,�k�k��,6.0,�L
2021/09/02,06:20,0.576,0.854,0.549,1.037,0.727,0.356,0.610,0.575,�k�k��,5.4,�L
2021/09/02,06:30,0.578,0.853,0.548,1.039,0.727,0.354,0.611,0.575,�k�k��,5.0,�L
2021/09/02,06:40,0.576,0.852,0.547,1.040,0.728,0.354,0.610,0.575,�k�k��,5.5,��
2021/09/02,06:50,0.578,0.853,0.548,1.039,0.728,0.355,0.609,0.575,�k�k��,5.5,�L
2021/09/02,07:00,0.577,0.852,0.548,1.040,0.729,0.355,0.611,0.575,�k�k��,5.0,�L
2021/09/02,07:10,0.578,0.853,0.547,1.041,0.729,0.355,0.611,0.575,�k�k��,5.5,�L
2021/09/02,07:20,0.579,0.854,0.549,1.039,0.729,0.355,0.609,0.574,�k�k��,5.7,�L
2021/09/02,07:30,0.578,0.855,0.548,1.043,0.730,0.356,0.610,0.579,�k�k��,5.1,�L
2021/09/02,07:40,0.580,0.854,0.549,1.040,0.729,0.355,0.611,0.575,�k�k��,4.4,�L
2021/09/02,07:50,0.579,0.854,0.549,1.040,0.730,0.356,0.611,0.575,�k�k��,4.9,�L
2021/09/02,08:00,0.578,0.851,0.548,1.040,0.728,0.355,0.610,0.574,�k�k��,5.4,�L
2021/09/02,08:10,0.577,0.852,0.547,1.042,0.730,0.357,0.612,0.576,�k�k��,5.1,�L
2021/09/02,08:20,0.579,0.853,0.548,1.042,0.730,0.355,0.610,0.574,�k�k��,5.2,��
2021/09/02,08:30,0.578,0.850,0.547,1.041,0.731,0.355,0.611,0.575,�k�k��,5.4,�L
2021/09/02,08:40,0.578,0.854,0.547,1.041,0.729,0.356,0.612,0.576,�k�k��,5.4,��
2021/09/02,08:50,0.578,0.852,0.547,1.042,0.731,0.355,0.612,0.575,�k�k��,5.5,��
2021/09/02,09:00,0.578,0.853,0.548,1.041,0.730,0.354,0.612,0.574,�k�k��,4.7,�L
2021/09/02,09:10,0.578,0.852,0.546,1.041,0.731,0.355,0.611,0.575,�k��,4.9,��
2021/09/02,09:20,0.577,0.852,0.549,1.043,0.732,0.353,0.613,0.575,�k�k��,5.0,��
2021/09/02,09:30,0.579,0.852,0.549,1.044,0.732,0.354,0.612,0.576,�k�k��,5.1,��
2021/09/02,09:40,0.576,0.853,0.548,1.044,0.731,0.354,0.612,0.576,�k�k��,4.5,�L
2021/09/02,09:50,0.578,0.852,0.548,1.043,0.731,0.354,0.612,0.575,�k�k��,4.3,�L
2021/09/02,10:00,0.577,0.854,0.546,1.043,0.732,0.353,0.613,0.575,�k��,4.2,��
2021/09/02,10:10,0.578,0.853,0.546,1.041,0.733,0.355,0.613,0.576,�k��,3.9,��
2021/09/02,10:20,0.577,0.852,0.547,1.042,0.732,0.354,0.614,0.575,�k��,4.2,��
2021/09/02,10:30,0.576,0.852,0.545,1.043,0.731,0.354,0.614,0.576,�k�k��,4.0,��
2021/09/02,10:40,0.581,0.853,0.545,1.046,0.731,0.354,0.615,0.575,�k�k��,3.8,��
2021/09/02,10:50,0.579,0.850,0.547,1.046,0.732,0.354,0.613,0.577,�k�k��,4.4,��
2021/09/02,11:00,0.579,0.854,0.545,1.042,0.732,0.354,0.614,0.575,�k,4.0,�L
2021/09/02,11:10,0.577,0.854,0.543,1.045,0.732,0.354,0.614,0.575,�k,3.7,��
2021/09/02,11:20,0.578,0.854,0.548,1.043,0.733,0.354,0.614,0.576,�k�k��,4.0,��
2021/09/02,11:30,0.579,0.856,0.548,1.045,0.732,0.353,0.616,0.574,�k,4.3,��
2021/09/02,11:40,0.580,0.856,0.547,1.046,0.720,0.354,0.615,0.576,�k,4.9,��
2021/09/02,11:50,0.579,0.857,0.549,1.046,0.732,0.355,0.614,0.575,�k,4.9,�L
2021/09/02,12:00,0.581,0.858,0.547,1.044,0.734,0.353,0.614,0.575,�k,4.3,��
2021/09/02,12:10,0.580,0.858,0.549,1.047,0.735,0.355,0.614,0.576,�k,4.3,��
2021/09/02,12:20,0.579,0.858,0.549,1.047,0.735,0.354,0.612,0.575,�k,4.0,��
2021/09/02,12:30,0.582,0.858,0.550,1.047,0.735,0.354,0.614,0.575,�k,4.3,��
2021/09/02,12:40,0.582,0.859,0.550,1.046,0.738,0.356,0.615,0.575,�k,4.5,��
2021/09/02,12:50,0.582,0.858,0.551,1.046,0.735,0.356,0.614,0.576,�k,2.9,��
2021/09/02,13:00,0.583,0.855,0.549,1.049,0.737,0.355,0.616,0.576,�k,3.7,��
2021/09/02,13:10,0.582,0.858,0.549,1.047,0.736,0.354,0.614,0.577,�k,4.1,��
2021/09/02,13:20,0.582,0.857,0.549,1.049,0.737,0.355,0.615,0.576,�k,4.6,��
2021/09/02,13:30,0.582,0.857,0.550,1.049,0.734,0.355,0.616,0.577,�k,3.6,��
2021/09/02,13:40,0.583,0.860,0.551,1.049,0.738,0.356,0.615,0.579,�k,3.1,��
2021/09/02,13:50,0.581,0.859,0.550,1.048,0.737,0.356,0.615,0.577,�k,2.9,��
2021/09/02,14:00,0.582,0.859,0.550,1.049,0.737,0.356,0.615,0.577,�k,3.0,��
2021/09/02,14:10,0.584,0.858,0.550,1.049,0.737,0.356,0.615,0.578,�k,3.3,��
2021/09/02,14:20,0.582,0.857,0.551,1.048,0.738,0.356,0.617,0.578,�k�k��,3.3,��
2021/09/02,14:30,0.581,0.859,0.550,1.051,0.738,0.355,0.616,0.577,�k�k��,3.5,��
2021/09/02,14:40,0.582,0.860,0.552,1.051,0.739,0.355,0.616,0.577,�k�k��,3.8,��
2021/09/02,14:50,0.582,0.860,0.552,1.053,0.739,0.356,0.617,0.577,�k�k��,3.4,��
2021/09/02,15:00,0.583,0.863,0.551,1.051,0.741,0.356,0.616,0.577,�k�k��,3.6,��
2021/09/02,15:10,0.583,0.860,0.553,1.050,0.740,0.357,0.617,0.578,�k�k��,4.0,��
2021/09/02,15:20,0.581,0.861,0.550,1.053,0.738,0.356,0.617,0.578,�k,3.5,��
2021/09/02,15:30,0.583,0.864,0.553,1.052,0.740,0.355,0.617,0.578,�k,3.3,��
2021/09/02,15:40,0.584,0.863,0.553,1.053,0.740,0.356,0.617,0.576,�k,3.4,��
2021/09/02,15:50,0.583,0.862,0.553,1.055,0.741,0.357,0.617,0.577,�k,3.3,�L
2021/09/02,16:00,0.583,0.862,0.551,1.053,0.741,0.357,0.617,0.577,�k,2.6,�L
2021/09/02,16:10,0.584,0.864,0.553,1.053,0.739,0.356,0.616,0.578,�k,3.3,�L
2021/09/02,16:20,0.583,0.865,0.554,1.052,0.740,0.356,0.618,0.579,�k,3.1,��
2021/09/02,16:30,0.583,0.866,0.553,1.051,0.742,0.355,0.617,0.577,�k,3.1,��
2021/09/02,16:40,0.584,0.864,0.554,1.055,0.740,0.357,0.618,0.578,�k,3.0,�L
2021/09/02,16:50,0.586,0.865,0.553,1.052,0.743,0.357,0.617,0.577,�k,4.3,�L
2021/09/02,17:00,0.583,0.865,0.552,1.055,0.741,0.356,0.618,0.578,�k�k��,4.3,��
2021/09/02,17:10,0.583,0.864,0.554,1.055,0.742,0.357,0.617,0.579,�k�k��,4.0,��
2021/09/02,17:20,0.583,0.865,0.553,1.054,0.741,0.357,0.617,0.579,�k�k��,4.1,��
2021/09/02,17:30,0.585,0.865,0.553,1.053,0.742,0.356,0.617,0.578,�k�k��,3.6,��
2021/09/02,17:40,0.584,0.866,0.553,1.055,0.740,0.356,0.617,0.579,�k�k��,4.0,��
2021/09/02,17:50,0.584,0.867,0.553,1.055,0.742,0.358,0.617,0.579,�k,3.7,�L
2021/09/02,18:00,0.585,0.866,0.553,1.055,0.743,0.356,0.618,0.579,�k��,5.4,�L
2021/09/02,18:10,0.584,0.866,0.553,1.054,0.740,0.357,0.617,0.580,�k��,4.7,�L
2021/09/02,18:20,0.584,0.864,0.552,1.054,0.742,0.358,0.616,0.579,�k�k��,5.0,��
2021/09/02,18:30,0.584,0.866,0.553,1.056,0.741,0.357,0.617,0.580,�k�k��,4.6,��
2021/09/02,18:40,0.583,0.863,0.555,1.055,0.741,0.357,0.617,0.578,�k,5.3,��
2021/09/02,18:50,0.584,0.868,0.553,1.054,0.743,0.357,0.617,0.579,�k�k��,4.8,�L
2021/09/02,19:00,0.583,0.867,0.555,1.057,0.742,0.358,0.615,0.580,�k,4.3,�L
2021/09/02,19:10,0.582,0.866,0.555,1.056,0.741,0.356,0.616,0.580,�k�k��,3.7,�L
2021/09/02,19:20,0.582,0.866,0.555,1.054,0.743,0.357,0.617,0.582,�k,3.9,��
2021/09/02,19:30,0.584,0.867,0.555,1.054,0.743,0.358,0.616,0.578,�k,3.9,��
2021/09/02,19:40,0.585,0.867,0.555,1.055,0.744,0.358,0.616,0.580,�k�k��,3.3,��
2021/09/02,19:50,0.585,0.910,0.554,1.055,0.746,0.358,0.617,0.581,�k�k��,4.0,��
2021/09/02,20:00,0.586,0.866,0.555,1.056,0.745,0.357,0.616,0.579,�k�k��,3.7,��
2021/09/02,20:10,0.586,0.867,0.555,1.055,0.745,0.358,0.616,0.582,�k��,4.0,��
2021/09/02,20:20,0.584,0.865,0.555,1.055,0.743,0.356,0.616,0.581,�k��,4.4,��
2021/09/02,20:30,0.585,0.868,0.555,1.053,0.743,0.358,0.618,0.581,�k�k��,4.4,��
2021/09/02,20:40,0.585,0.866,0.555,1.053,0.743,0.358,0.619,0.581,�k��,5.4,��
2021/09/02,20:50,0.585,0.869,0.555,1.054,0.743,0.358,0.617,0.581,�k�k��,5.0,��
2021/09/02,21:00,0.586,0.867,0.555,1.056,0.744,0.356,0.617,0.582,�k�k��,5.4,��
2021/09/02,21:10,0.585,0.868,0.555,1.055,0.744,0.357,0.618,0.580,�k�k��,5.8,��
2021/09/02,21:20,0.585,0.865,0.555,1.055,0.742,0.357,0.618,0.581,�k�k��,4.5,��
2021/09/02,21:30,0.585,0.868,0.555,1.054,0.744,0.357,0.616,0.582,�k�k��,5.3,��
2021/09/02,21:40,0.585,0.867,0.555,1.056,0.743,0.357,0.618,0.581,�k�k��,4.6,��
2021/09/02,21:50,0.585,0.865,0.555,1.057,0.744,0.357,0.619,0.583,�k�k��,4.6,��
2021/09/02,22:00,0.585,0.867,0.555,1.056,0.744,0.358,0.617,0.582,�k�k��,4.8,��
2021/09/02,22:10,0.586,0.866,0.555,1.057,0.744,0.358,0.619,0.583,�k�k��,5.3,��
2021/09/02,22:20,0.585,0.867,0.553,1.054,0.744,0.358,0.618,0.581,�k�k��,5.2,��
2021/09/02,22:30,0.587,0.870,0.555,1.054,0.743,0.358,0.618,0.581,�k�k��,6.7,��
2021/09/02,22:40,0.585,0.868,0.555,1.055,0.746,0.358,0.618,0.581,�k�k��,6.1,��
2021/09/02,22:50,0.586,0.869,0.555,1.057,0.742,0.356,0.617,0.583,�k�k��,6.5,��
2021/09/02,23:00,0.585,0.868,0.555,1.058,0.743,0.358,0.617,0.583,�k�k��,6.6,��
2021/09/02,23:10,0.586,0.868,0.553,1.056,0.745,0.357,0.618,0.583,�k�k��,7.4,��
2021/09/02,23:20,0.588,0.868,0.555,1.054,0.743,0.358,0.617,0.582,�k�k��,7.0,��
2021/09/02,23:30,0.585,0.866,0.555,1.056,0.745,0.358,0.616,0.581,�k�k��,6.5,��
2021/09/02,23:40,0.586,0.867,0.556,1.056,0.744,0.357,0.618,0.582,�k�k��,6.2,��
2021/09/02,23:50,0.584,0.867,0.555,1.056,0.745,0.358,0.618,0.580,�k�k��,5.8,��
